QPF
0.00 0.00 0.00 0.00 0.00 0.00 0.00 0.00 0.00 0.00 0.00 0.00 0.00 0.00 0.00 0.00 0.00 0.00 0.00 0.00 0.00 0.00 0.00 0.00 0.00 0.00 0.00 0.00 0.00 0.00 0.00 0.00 0.00 0.00 0.00 0.00 0.00 0.00 0.00 0.00 0.00 0.00 0.00 0.00 0.00
0.00 0.00 0.00 0.00 0.00 0.00 0.00 0.00 0.00 0.00 0.00 0.00 0.00 0.00 0.00 0.00 0.00 0.00 0.00 0.00 0.00 0.00 0.00 0.00 0.00 0.00 0.00 0.00 0.00 0.00 0.00 0.00 0.00 0.00 0.00 0.00 0.00 0.00 0.00 0.00 0.00 0.00 0.00 0.00 0.00
0.00 0.00 0.00 0.00 0.00 0.00 0.00 0.00 0.00 0.00 0.00 0.00 0.00 0.00 0.00 0.00 0.00 0.00 0.00 0.00 0.00 0.00 0.00 0.00 0.00 0.00 0.00 0.00 0.00 0.00 0.00 0.00 0.00 0.00 0.00 0.00 0.00 0.00 0.00 0.00 0.00 0.00 0.00 0.00 0.00
0.00 0.00 0.00 0.00 0.00 0.00 0.00 0.00 0.00 0.00 0.00 0.00 0.00 0.00 0.00 0.00 0.00 0.00 0.00 0.00 0.00 0.00 0.00 0.00 0.00 0.00 0.00 0.00 0.00 0.00 0.00 0.00 0.00 0.00 0.00 0.00 0.00 0.00 0.00 0.00 0.00 0.00 0.00 0.00 0.00
0.00 0.00 0.00 0.00 0.00 0.00 0.00 0.00 0.00 0.00 0.00 0.00 0.00 0.00 0.00 0.00 0.00 0.00 0.00 0.00 0.00 0.00 0.00 0.00 0.00 0.00 0.00 0.00 0.00 0.00 0.00 0.00 0.00 0.00 0.00 0.00 0.00 0.00 0.00 0.00 0.00 0.00 0.00 0.00 0.00
0.00 0.00 0.00 0.00 0.00 0.00 0.00 0.00 0.00 0.00 0.00 0.00 0.00 0.00 0.00 0.00 0.00 0.00 0.00 0.00 0.00 0.00 0.00 0.00 0.00 0.00 0.00 0.00 0.00 0.00 0.00 0.00 0.00 0.00 0.00 0.00 0.00 0.00 0.00 0.00 0.00 0.00 0.00 0.00 0.00
0.00 0.00 0.00 0.00 0.00 0.00 0.00 0.00 0.00 0.00 0.00 0.00 0.00 0.00 0.00 0.00 0.00 0.00 0.00 0.00 0.00 0.00 0.00 0.00 0.00 0.00 0.00 0.00 0.00 0.00 0.00 0.00 0.00 0.00 0.00 0.00 0.00 0.00 0.00 0.00 0.00 0.00 0.00 0.00 0.00
0.00 0.00 0.00 0.00 0.00 0.00 0.00 0.00 0.00 0.00 0.00 0.00 0.00 0.00 0.00 0.00 0.00 0.00 0.00 0.00 0.00 0.00 0.00 0.00 0.00 0.00 0.00 0.00 0.00 0.00 0.00 0.00 0.00 0.00 0.00 0.00 0.00 0.00 0.00 0.00 0.00 0.00 0.00 0.00 0.00
0.00 0.00 0.00 0.00 0.00 0.00 0.00 0.00 0.00 0.00 0.00 0.00 0.00 0.00 0.00 0.00 0.00 0.00 0.00 0.00 0.00 0.00 0.00 0.00 0.00 0.00 0.00 0.00 0.00 0.00 0.00 0.00 0.00 0.00 0.00 0.00 0.00 0.00 0.00 0.00 0.00 0.00 0.00 0.00 0.00
0.00 0.00 0.00 0.00 0.00 0.00 0.00 0.00 0.00 0.00 0.00 0.00 0.00 0.00 0.00 0.00 0.00 0.00 0.00 0.00 0.00 0.00 0.00 0.00 0.00 0.00 0.00 0.00 0.00 0.00 0.00 0.00 0.00 0.00 0.00 0.00 0.00 0.00 0.00 0.00 0.00 0.00 0.00 0.00 0.00
0.00 0.00 0.00 0.00 0.00 0.00 0.00 0.00 0.00 0.00 0.00 0.00 0.00 0.00 0.00 0.00 0.00 0.00 0.00 0.00 0.00 0.00 0.00 0.00 0.00 0.00 0.00 0.00 0.00 0.00 0.00 0.00 0.00 0.00 0.00 0.00 0.00 0.00 0.00 0.00 0.00 0.00 0.00 0.00 0.00
0.00 0.00 0.00 0.00 0.00 0.00 0.00 0.00 0.00 0.00 0.00 0.00 0.00 0.00 0.00 0.00 0.00 0.00 0.00 0.00 0.00 0.00 0.00 0.00 0.00 0.00 0.00 0.00 0.00 0.00 0.00 0.00 0.00 0.00 0.00 0.00 0.00 0.00 0.00 0.00 0.00 0.00 0.00 0.00 0.00
0.00 0.00 0.00 0.00 0.00 0.00 0.00 0.00 0.00 0.00 0.00 0.00 0.00 0.00 0.00 0.00 0.00 0.00 0.00 0.00 0.00 0.00 0.00 0.00 0.00 0.00 0.00 0.00 0.00 0.00 0.00 0.00 0.00 0.00 0.00 0.00 0.00 0.00 0.00 0.00 0.00 0.00 0.00 0.00 0.00
0.00 0.00 0.00 0.00 0.00 0.00 0.00 0.00 0.00 0.00 0.00 0.00 0.00 0.00 0.00 0.00 0.00 0.00 0.00 0.00 0.00 0.00 0.00 0.00 0.00 0.00 0.00 0.00 0.00 0.00 0.00 0.00 0.00 0.00 0.00 0.00 0.00 0.00 0.00 0.00 0.00 0.00 0.00 0.00 0.00
0.00 0.00 0.00 0.00 0.00 0.00 0.00 0.00 0.00 0.00 0.00 0.00 0.00 0.00 0.00 0.00 0.00 0.00 0.00 0.00 0.00 0.00 0.00 0.00 0.00 0.00 0.00 0.00 0.00 0.00 0.00 0.00 0.00 0.00 0.00 0.00 0.00 0.00 0.00 0.00 0.00 0.00 0.00 0.00 0.00
0.00 0.00 0.00 0.00 0.00 0.00 0.00 0.00 0.00 0.00 0.00 0.00 0.00 0.00 0.00 0.00 0.00 0.00 0.00 0.00 0.00 0.00 0.00 0.00 0.00 0.00 0.00 0.00 0.00 0.00 0.00 0.00 0.00 0.00 0.00 0.00 0.00 0.00 0.00 0.00 0.00 0.00 0.00 0.00 0.00
0.00 0.00 0.00 0.00 0.00 0.00 0.00 0.00 0.00 0.00 0.00 0.00 0.00 0.00 0.00 0.00 0.00 0.00 0.00 0.00 0.00 0.00 0.00 0.00 0.00 0.00 0.00 0.00 0.00 0.00 0.00 0.00 0.00 0.00 0.00 0.00 0.00 0.00 0.00 0.00 0.00 0.00 0.00 0.00 0.00
0.00 0.00 0.00 0.00 0.00 0.00 0.00 0.00 0.00 0.00 0.00 0.00 0.00 0.00 0.00 0.00 0.00 0.00 0.00 0.00 0.00 0.00 0.00 0.00 0.00 0.00 0.00 0.00 0.00 0.00 0.00 0.00 0.00 0.00 0.00 0.00 0.00 0.00 0.00 0.00 0.00 0.00 0.00 0.00 0.00
0.00 0.00 0.00 0.00 0.00 0.00 0.00 0.00 0.00 0.00 0.00 0.00 0.00 0.00 0.00 0.00 0.00 0.00 0.00 0.00 0.00 0.00 0.00 0.00 0.00 0.00 0.00 0.00 0.00 0.00 0.00 0.00 0.00 0.00 0.00 0.00 0.00 0.00 0.00 0.00 0.00 0.00 0.00 0.00 0.00
0.00 0.00 0.00 0.00 0.00 0.00 0.00 0.00 0.00 0.00 0.00 0.00 0.00 0.00 0.00 0.00 0.00 0.00 0.00 0.00 0.00 0.00 0.00 0.00 0.00 0.00 0.00 0.00 0.00 0.00 0.00 0.00 0.00 0.00 0.00 0.00 0.00 0.00 0.00 0.00 0.00 0.00 0.00 0.00 0.00
0.00 0.00 0.00 0.00 0.00 0.00 0.00 0.00 0.00 0.00 0.00 0.00 0.00 0.00 0.00 0.00 0.00 0.00 0.00 0.00 0.00 0.00 0.00 0.00 0.00 0.00 0.00 0.00 0.00 0.00 0.00 0.00 0.00 0.00 0.00 0.00 0.00 0.00 0.00 0.00 0.00 0.00 0.00 0.00 0.00
0.00 0.00 0.00 0.00 0.00 0.00 0.00 0.00 0.00 0.00 0.00 0.00 0.00 0.00 0.00 0.00 0.00 0.00 0.00 0.00 0.00 0.00 0.00 0.00 0.00 0.00 0.00 0.00 0.00 0.00 0.00 0.00 0.00 0.00 0.00 0.00 0.00 0.00 0.00 0.00 0.00 0.00 0.00 0.00 0.00
0.00 0.00 0.00 0.00 0.00 0.00 0.00 0.00 0.00 0.00 0.00 0.00 0.00 0.00 0.00 0.00 0.00 0.00 0.00 0.00 0.00 0.00 0.00 0.00 0.00 0.00 0.00 0.00 0.00 0.00 0.00 0.00 0.00 0.00 0.00 0.00 0.00 0.00 0.00 0.00 0.00 0.00 0.00 0.00 0.00
0.00 0.00 0.00 0.00 0.00 0.00 0.00 0.00 0.00 0.00 0.00 0.00 0.00 0.00 0.00 0.00 0.00 0.00 0.00 0.00 0.00 0.00 0.00 0.00 0.00 0.00 0.00 0.00 0.00 0.00 0.00 0.00 0.00 0.00 0.00 0.00 0.00 0.00 0.00 0.00 0.00 0.00 0.00 0.00 0.00
0.00 0.00 0.00 0.00 0.00 0.00 0.00 0.00 0.00 0.00 0.00 0.00 0.00 0.00 0.00 0.00 0.00 0.00 0.00 0.00 0.00 0.00 0.00 0.00 0.00 0.00 0.00 0.00 0.00 0.00 0.00 0.00 0.00 0.00 0.00 0.00 0.00 0.00 0.00 0.00 0.00 0.00 0.00 0.00 0.00
0.00 0.00 0.00 0.00 0.00 0.00 0.00 0.00 0.00 0.00 0.00 0.00 0.00 0.00 0.00 0.00 0.00 0.00 0.00 0.00 0.00 0.00 0.00 0.00 0.00 0.00 0.00 0.00 0.00 0.00 0.00 0.00 0.00 0.00 0.00 0.00 0.00 0.00 0.00 0.00 0.00 0.00 0.00 0.00 0.00
0.00 0.00 0.00 0.00 0.00 0.00 0.00 0.00 0.00 0.00 0.00 0.00 0.00 0.00 0.00 0.00 0.00 0.00 0.00 0.00 0.00 0.00 0.00 0.00 0.00 0.00 0.00 0.00 0.00 0.00 0.00 0.00 0.00 0.00 0.00 0.00 0.00 0.00 0.00 0.00 0.00 0.00 0.00 0.00 0.00
MSLP
1015.63 1015.43 1015.23 1015.03 1014.86 1014.70 1014.52 1014.33 1014.13 1013.88 1013.57 1013.22 1012.88 1012.55 1012.25 1011.83 1011.17 1011.32 1010.66 1009.36 1009.32 1009.40 1009.41 1009.13 1008.87 1009.03 1009.10 1009.33 1009.54 1009.91 1011.13 1011.65 1010.56 1009.92 1009.41 1008.52 1008.37 1008.44 1008.59 1008.81 1008.92 1009.12 1009.64 1010.57 1010.87
1015.64 1015.44 1015.21 1014.98 1014.80 1014.65 1014.50 1014.34 1014.07 1013.76 1013.47 1013.13 1012.77 1012.39 1012.01 1011.68 1011.30 1010.59 1009.05 1008.94 1009.24 1009.29 1009.36 1009.40 1009.37 1009.42 1009.48 1009.43 1009.50 1010.03 1010.89 1010.50 1009.83 1009.31 1009.20 1008.74 1008.53 1008.78 1009.20 1009.37 1009.78 1010.00 1010.89 1011.05 1011.07
1015.58 1015.37 1015.15 1014.93 1014.73 1014.55 1014.38 1014.22 1013.99 1013.70 1013.38 1013.01 1012.59 1012.15 1011.80 1011.68 1011.18 1009.68 1008.55 1008.69 1009.03 1009.22 1009.35 1009.48 1009.41 1009.53 1009.55 1009.45 1009.38 1009.75 1009.93 1009.46 1009.12 1008.75 1008.57 1008.56 1008.58 1008.60 1009.13 1009.77 1009.83 1010.15 1011.12 1011.62 1011.41
1015.53 1015.27 1015.01 1014.80 1014.60 1014.42 1014.27 1014.10 1013.88 1013.61 1013.26 1012.85 1012.40 1011.96 1011.51 1011.38 1010.79 1008.98 1008.46 1008.54 1008.96 1009.26 1009.39 1009.44 1009.39 1009.49 1009.55 1009.51 1009.06 1009.20 1009.03 1008.71 1008.61 1008.51 1008.44 1008.44 1008.43 1008.73 1008.97 1009.10 1008.93 1009.43 1010.42 1011.49 1011.90
1015.41 1015.15 1014.90 1014.67 1014.45 1014.24 1014.09 1013.95 1013.74 1013.44 1013.09 1012.66 1012.27 1011.83 1011.40 1011.07 1009.95 1008.32 1008.45 1008.70 1008.83 1009.03 1009.11 1009.24 1009.28 1009.54 1009.63 1009.37 1009.01 1008.97 1008.85 1008.60 1008.43 1008.54 1008.51 1008.50 1008.75 1008.96 1008.97 1008.74 1009.14 1010.01 1010.66 1011.46 1012.20
1015.32 1015.04 1014.76 1014.48 1014.24 1014.01 1013.82 1013.66 1013.49 1013.22 1012.90 1012.57 1012.22 1011.78 1011.59 1010.58 1008.61 1008.22 1008.55 1008.62 1008.63 1008.87 1008.87 1008.93 1009.13 1009.19 1009.34 1009.24 1009.13 1008.75 1008.80 1008.81 1008.76 1008.76 1008.64 1008.85 1009.01 1009.16 1009.32 1009.11 1009.52 1010.41 1011.31 1011.89 1012.14
1015.33 1015.02 1014.66 1014.34 1014.05 1013.79 1013.53 1013.29 1013.07 1012.84 1012.55 1012.39 1012.18 1011.90 1011.46 1009.77 1008.68 1008.47 1008.34 1008.31 1008.24 1008.45 1008.58 1008.70 1008.79 1009.05 1009.37 1009.33 1009.11 1009.11 1009.36 1009.43 1009.24 1009.06 1009.16 1009.05 1009.64 1009.82 1009.49 1009.51 1009.99 1011.30 1012.00 1012.63 1013.09
1015.26 1014.94 1014.60 1014.26 1013.91 1013.54 1013.16 1012.86 1012.67 1012.46 1012.30 1012.26 1012.18 1011.91 1010.94 1009.01 1008.82 1008.66 1008.37 1008.05 1007.82 1007.90 1008.17 1008.19 1008.51 1008.99 1009.44 1009.47 1009.80 1010.15 1010.46 1010.94 1010.42 1009.93 1010.15 1010.03 1010.51 1010.36 1010.09 1010.20 1010.74 1011.82 1012.49 1013.12 1013.65
1015.16 1014.82 1014.44 1014.04 1013.68 1013.25 1012.73 1012.28 1012.09 1012.03 1012.14 1012.27 1012.24 1011.76 1010.50 1008.78 1008.66 1008.14 1008.21 1008.19 1008.05 1008.05 1008.08 1008.19 1008.63 1009.70 1010.02 1010.71 1011.40 1011.81 1011.75 1011.74 1011.38 1010.86 1010.73 1011.14 1011.67 1011.04 1011.19 1011.09 1011.24 1012.12 1012.73 1013.49 1014.08
1015.13 1014.73 1014.35 1013.92 1013.49 1012.98 1012.27 1011.80 1011.58 1011.55 1011.92 1012.13 1011.79 1011.84 1010.27 1009.28 1008.55 1008.08 1007.94 1008.02 1008.37 1008.62 1008.83 1008.95 1009.98 1010.51 1011.31 1011.67 1012.29 1012.37 1012.39 1012.40 1012.03 1011.90 1011.77 1012.30 1012.91 1013.05 1012.48 1011.92 1011.90 1012.14 1013.63 1014.49 1014.93
1015.19 1014.71 1014.26 1013.81 1013.36 1012.94 1011.90 1011.70 1012.14 1011.92 1011.69 1011.51 1011.16 1010.77 1009.89 1008.97 1008.32 1008.10 1007.96 1008.17 1008.54 1009.12 1009.66 1009.99 1010.86 1011.20 1011.30 1011.35 1011.67 1012.14 1012.57 1012.66 1012.46 1012.34 1012.68 1013.73 1014.50 1014.67 1014.03 1012.99 1012.96 1013.54 1014.82 1015.60 1015.85
1015.20 1014.69 1014.23 1013.79 1013.41 1013.06 1012.94 1012.70 1012.18 1012.07 1011.52 1010.47 1010.25 1010.08 1009.31 1009.00 1008.83 1008.00 1007.94 1008.57 1009.03 1009.72 1010.03 1010.64 1010.85 1010.59 1010.97 1011.28 1011.79 1012.36 1012.76 1012.98 1012.96 1012.83 1013.28 1014.47 1015.35 1015.56 1015.19 1015.20 1015.06 1014.97 1015.70 1016.42 1016.68
1015.03 1014.58 1014.11 1013.63 1013.33 1013.12 1013.11 1012.24 1011.71 1011.78 1011.77 1010.24 1009.52 1009.12 1008.64 1008.81 1008.62 1008.16 1008.23 1008.62 1009.30 1009.94 1010.32 1010.70 1010.53 1010.35 1010.80 1011.62 1012.07 1012.66 1012.90 1013.14 1013.41 1013.49 1013.75 1014.40 1016.01 1016.44 1016.40 1016.27 1016.21 1016.63 1016.97 1017.06 1017.30
1015.04 1014.44 1013.95 1013.36 1013.36 1013.46 1012.64 1011.60 1011.45 1011.44 1011.84 1010.28 1009.05 1008.12 1008.15 1008.35 1008.42 1008.04 1008.11 1008.75 1009.56 1010.15 1010.52 1010.85 1010.48 1010.64 1011.08 1011.52 1011.93 1012.72 1012.92 1013.32 1013.67 1014.30 1015.01 1015.21 1017.01 1017.48 1017.48 1017.47 1017.57 1017.73 1017.73 1017.87 1017.96
1014.94 1014.39 1013.95 1013.50 1013.51 1013.10 1012.27 1011.70 1011.40 1011.60 1011.74 1009.81 1008.64 1007.72 1008.12 1008.64 1008.63 1008.33 1008.25 1008.66 1009.62 1010.32 1010.98 1011.32 1010.91 1010.90 1011.34 1011.64 1011.96 1012.93 1013.16 1013.90 1014.31 1015.19 1015.93 1016.37 1017.15 1017.29 1017.67 1017.95 1018.03 1018.17 1018.17 1018.08 1018.04
1014.70 1014.23 1014.07 1013.73 1013.59 1012.33 1011.84 1011.52 1011.64 1012.30 1011.07 1009.73 1008.66 1008.37 1008.81 1008.90 1008.98 1008.78 1008.92 1009.21 1009.90 1010.75 1011.39 1011.75 1011.16 1011.15 1011.38 1012.02 1012.30 1012.99 1013.88 1015.09 1016.13 1016.89 1017.36 1017.13 1017.59 1017.71 1017.45 1017.48 1018.06 1018.25 1018.30 1018.24 1018.18
1014.21 1013.85 1013.83 1013.19 1012.75 1012.07 1011.82 1012.11 1012.92 1012.31 1010.94 1010.33 1009.62 1009.28 1009.47 1009.62 1009.56 1009.57 1009.91 1010.53 1011.26 1011.98 1012.75 1012.53 1012.22 1011.86 1011.76 1012.40 1012.90 1013.71 1015.47 1017.09 1018.13 1018.54 1018.65 1017.70 1017.71 1017.15 1016.67 1016.91 1017.42 1017.95 1018.26 1018.34 1018.34
1013.76 1013.34 1013.29 1012.39 1012.03 1012.13 1012.63 1013.22 1013.21 1012.20 1011.37 1010.65 1010.22 1009.88 1010.28 1010.25 1010.11 1010.23 1010.86 1011.86 1012.07 1012.53 1013.62 1013.66 1013.35 1012.75 1012.51 1012.86 1013.60 1014.82 1016.22 1018.05 1019.21 1019.89 1019.37 1018.12 1017.60 1016.88 1016.56 1016.90 1017.40 1017.93 1018.27 1018.61 1018.75
1013.64 1013.32 1013.14 1012.09 1012.00 1012.48 1013.57 1014.17 1013.64 1012.49 1011.68 1011.25 1010.92 1011.21 1011.47 1011.33 1011.12 1011.05 1012.07 1012.78 1013.13 1013.25 1013.78 1014.31 1014.12 1013.58 1013.33 1013.35 1014.07 1015.46 1016.70 1017.73 1019.11 1020.46 1020.35 1019.09 1018.07 1017.33 1017.44 1017.82 1018.14 1018.59 1019.16 1019.28 1019.24
1014.92 1014.36 1013.51 1012.58 1012.15 1013.32 1014.36 1014.52 1013.53 1012.29 1011.70 1011.63 1011.97 1012.24 1012.53 1012.50 1012.44 1012.24 1012.96 1013.42 1013.66 1013.94 1014.04 1015.09 1015.23 1014.84 1014.33 1014.21 1014.85 1015.59 1016.87 1018.33 1020.05 1021.26 1021.39 1020.13 1019.37 1018.50 1018.45 1018.50 1018.72 1019.27 1019.59 1019.51 1019.32
1015.46 1014.83 1013.50 1012.80 1012.75 1014.31 1015.50 1014.96 1013.70 1012.52 1012.00 1012.21 1012.53 1012.85 1013.20 1013.38 1013.42 1013.53 1013.89 1014.01 1013.93 1014.57 1014.69 1015.81 1016.49 1016.36 1015.74 1015.94 1016.23 1016.84 1017.74 1019.23 1020.70 1021.69 1022.14 1021.58 1020.44 1019.13 1018.91 1018.49 1019.11 1019.58 1019.63 1019.59 1019.63
1016.70 1015.95 1013.62 1013.11 1014.52 1016.05 1016.19 1015.30 1014.20 1013.16 1012.64 1012.66 1013.00 1013.46 1013.82 1014.07 1014.18 1014.19 1014.40 1014.51 1014.51 1014.96 1016.11 1017.03 1017.86 1018.14 1017.63 1017.18 1016.98 1017.66 1018.98 1020.25 1022.02 1022.54 1022.67 1022.27 1020.63 1019.88 1019.30 1019.06 1019.35 1019.66 1019.70 1019.78 1019.82
1018.45 1017.28 1014.48 1014.06 1016.48 1017.31 1016.56 1015.65 1014.65 1013.93 1013.54 1013.37 1013.67 1013.98 1014.23 1014.71 1015.07 1015.12 1015.30 1015.69 1015.47 1016.16 1016.99 1017.66 1019.15 1019.54 1018.72 1018.47 1018.37 1018.91 1019.64 1020.57 1021.80 1022.75 1022.82 1022.82 1021.02 1020.12 1019.91 1019.85 1019.87 1019.91 1019.88 1019.79 1019.68
1019.13 1018.75 1017.56 1017.35 1018.39 1018.15 1017.67 1016.42 1015.33 1014.37 1013.98 1013.92 1014.44 1014.51 1015.01 1015.54 1015.81 1016.20 1016.32 1016.61 1016.54 1017.09 1017.66 1018.24 1019.89 1020.34 1020.56 1020.15 1020.16 1020.04 1020.10 1020.57 1021.42 1022.43 1022.25 1021.66 1020.75 1020.52 1020.23 1020.19 1020.07 1020.00 1019.87 1019.88 1019.93
1020.25 1020.81 1020.50 1020.06 1019.39 1019.09 1018.42 1017.29 1016.29 1015.34 1014.69 1014.56 1015.28 1015.71 1015.90 1016.47 1016.86 1017.20 1017.23 1017.30 1017.51 1017.81 1018.40 1019.31 1020.55 1020.91 1020.86 1020.50 1020.35 1020.21 1020.21 1020.28 1020.82 1020.93 1021.44 1020.47 1020.44 1020.16 1020.24 1020.29 1020.15 1020.00 1019.90 1019.83 1019.73
1021.46 1021.49 1021.15 1020.88 1020.14 1019.42 1018.93 1017.94 1017.02 1015.87 1015.49 1015.43 1015.80 1016.18 1016.28 1016.96 1017.45 1017.75 1017.87 1018.01 1018.23 1018.73 1019.34 1020.26 1021.26 1021.73 1021.67 1021.01 1020.80 1020.48 1020.23 1020.01 1020.02 1020.08 1020.26 1020.33 1020.40 1020.15 1020.17 1020.26 1020.26 1020.13 1020.03 1019.78 1019.64
1021.93 1021.79 1021.76 1021.26 1020.62 1019.98 1019.45 1018.70 1017.58 1016.80 1016.12 1015.74 1016.15 1016.65 1016.88 1017.09 1017.38 1017.63 1017.90 1018.05 1018.39 1019.11 1020.28 1021.26 1022.35 1023.06 1022.72 1022.04 1021.29 1020.79 1019.86 1019.66 1019.71 1019.98 1020.14 1020.66 1020.44 1020.44 1020.52 1020.44 1020.15 1019.93 1019.97 1019.74 1019.51
Thickness
5723 5725 5727 5729 5731 5734 5737 5739 5742 5745 5749 5753 5757 5759 5762 5765 5770 5769 5766 5781 5782 5782 5782 5781 5781 5775 5774 5767 5771 5766 5726 5715 5745 5750 5757 5772 5773 5782 5784 5774 5779 5781 5776 5770 5772
5723 5725 5727 5730 5732 5734 5737 5739 5742 5746 5750 5753 5756 5759 5762 5765 5767 5765 5785 5786 5783 5782 5777 5771 5765 5767 5759 5764 5764 5746 5721 5736 5754 5764 5761 5770 5772 5770 5765 5762 5760 5765 5764 5767 5768
5723 5726 5728 5730 5733 5735 5738 5740 5743 5746 5749 5752 5756 5760 5763 5763 5760 5766 5788 5787 5784 5782 5779 5775 5771 5765 5757 5762 5763 5751 5737 5757 5765 5770 5771 5769 5770 5774 5758 5752 5759 5757 5755 5758 5762
5724 5727 5729 5732 5734 5736 5738 5740 5742 5745 5748 5752 5756 5760 5763 5764 5734 5777 5787 5787 5784 5782 5778 5772 5767 5759 5754 5751 5763 5755 5761 5763 5769 5772 5772 5767 5773 5766 5767 5765 5776 5772 5767 5757 5753
5726 5728 5730 5733 5735 5738 5739 5741 5743 5746 5749 5752 5755 5759 5763 5750 5753 5787 5786 5784 5783 5780 5772 5766 5760 5755 5745 5750 5760 5755 5762 5767 5771 5764 5766 5769 5762 5759 5763 5775 5775 5769 5763 5755 5748
5726 5729 5731 5734 5737 5739 5741 5743 5744 5747 5750 5752 5755 5758 5755 5741 5783 5787 5785 5784 5782 5776 5770 5769 5763 5763 5753 5751 5751 5762 5762 5761 5763 5763 5763 5757 5757 5759 5762 5770 5766 5758 5749 5746 5746
5725 5728 5731 5735 5738 5741 5743 5745 5748 5750 5752 5753 5754 5755 5748 5750 5782 5784 5785 5783 5784 5780 5770 5773 5770 5762 5755 5750 5758 5758 5749 5744 5752 5757 5754 5757 5744 5745 5760 5761 5756 5743 5738 5736 5733
5725 5728 5731 5734 5737 5741 5745 5748 5750 5751 5753 5752 5753 5752 5741 5777 5779 5779 5782 5780 5786 5784 5778 5780 5774 5762 5755 5759 5742 5737 5728 5710 5736 5744 5745 5745 5714 5744 5752 5752 5746 5734 5732 5726 5721
5726 5729 5732 5735 5738 5742 5747 5751 5753 5753 5752 5750 5749 5747 5737 5777 5768 5779 5780 5770 5774 5776 5777 5777 5768 5746 5745 5724 5709 5709 5704 5712 5723 5735 5741 5733 5719 5734 5740 5744 5740 5727 5722 5715 5708
5726 5730 5733 5736 5740 5744 5750 5753 5754 5754 5751 5748 5749 5734 5750 5748 5765 5774 5779 5774 5762 5759 5755 5754 5736 5725 5714 5707 5684 5702 5703 5706 5706 5723 5724 5711 5706 5713 5722 5726 5727 5725 5709 5701 5695
5726 5729 5733 5736 5740 5743 5751 5750 5737 5734 5743 5737 5738 5738 5743 5759 5770 5764 5771 5762 5757 5744 5726 5733 5716 5707 5720 5721 5719 5711 5701 5703 5711 5721 5713 5697 5689 5692 5705 5713 5711 5706 5693 5685 5681
5725 5729 5732 5735 5738 5741 5741 5735 5737 5739 5721 5746 5744 5743 5752 5756 5738 5754 5766 5742 5735 5716 5726 5713 5706 5726 5727 5721 5712 5705 5697 5694 5701 5712 5705 5684 5676 5684 5691 5690 5692 5689 5681 5673 5669
5725 5729 5732 5735 5737 5738 5735 5737 5746 5743 5714 5732 5744 5742 5747 5749 5735 5739 5750 5739 5725 5714 5714 5705 5719 5730 5720 5709 5702 5698 5693 5696 5695 5699 5702 5692 5671 5669 5679 5679 5677 5670 5665 5662 5656
5724 5728 5732 5736 5733 5731 5732 5745 5745 5743 5689 5713 5732 5742 5747 5746 5729 5752 5752 5737 5721 5710 5711 5709 5719 5715 5709 5706 5704 5688 5705 5702 5698 5684 5664 5684 5646 5660 5661 5657 5656 5651 5648 5645 5642
5723 5727 5730 5733 5729 5726 5736 5741 5743 5731 5663 5724 5729 5756 5743 5728 5730 5733 5750 5734 5712 5712 5705 5695 5708 5708 5699 5704 5708 5693 5705 5695 5695 5676 5668 5667 5641 5650 5656 5647 5645 5641 5639 5638 5636
5722 5725 5726 5727 5726 5735 5738 5740 5732 5683 5673 5710 5729 5723 5718 5722 5722 5729 5726 5732 5725 5707 5703 5699 5712 5709 5704 5704 5705 5700 5692 5672 5659 5649 5638 5662 5643 5634 5642 5645 5637 5636 5633 5632 5630
5723 5725 5725 5727 5724 5735 5735 5722 5677 5667 5712 5702 5708 5715 5708 5704 5709 5711 5704 5694 5684 5676 5671 5681 5689 5699 5706 5691 5693 5681 5655 5623 5632 5618 5628 5649 5635 5637 5651 5647 5637 5630 5626 5623 5619
5723 5726 5726 5730 5732 5730 5721 5692 5670 5692 5695 5712 5708 5710 5695 5704 5703 5702 5691 5676 5689 5681 5657 5655 5655 5684 5695 5689 5680 5671 5653 5619 5619 5608 5621 5641 5631 5637 5649 5644 5634 5625 5617 5612 5607
5721 5721 5722 5729 5728 5723 5696 5660 5670 5689 5700 5694 5697 5679 5677 5688 5693 5696 5678 5673 5679 5682 5664 5652 5659 5682 5686 5689 5682 5663 5645 5650 5623 5609 5599 5612 5632 5636 5632 5623 5618 5609 5600 5595 5591
5706 5707 5711 5721 5723 5707 5674 5665 5678 5700 5700 5692 5672 5678 5664 5671 5672 5678 5670 5676 5677 5677 5678 5663 5649 5668 5674 5679 5670 5661 5654 5623 5604 5604 5595 5597 5605 5602 5609 5606 5602 5594 5587 5583 5581
5698 5693 5708 5714 5711 5681 5656 5662 5679 5698 5698 5683 5674 5670 5669 5666 5668 5663 5662 5670 5678 5668 5668 5658 5646 5651 5658 5647 5645 5632 5623 5613 5601 5588 5581 5574 5586 5606 5606 5605 5591 5583 5578 5573 5566
5678 5672 5704 5707 5669 5649 5652 5661 5674 5682 5686 5680 5673 5666 5663 5660 5659 5659 5658 5663 5672 5669 5651 5645 5626 5622 5636 5640 5639 5635 5615 5597 5565 5584 5573 5551 5569 5589 5591 5587 5581 5574 5570 5565 5556
5656 5658 5691 5692 5644 5639 5649 5659 5666 5665 5668 5669 5665 5666 5665 5656 5648 5652 5651 5651 5655 5648 5642 5638 5609 5586 5612 5618 5620 5613 5611 5604 5582 5559 5572 5557 5574 5586 5582 5576 5570 5564 5558 5551 5547
5647 5640 5651 5653 5640 5641 5636 5645 5648 5663 5663 5665 5656 5658 5650 5641 5638 5634 5639 5637 5642 5636 5635 5626 5598 5597 5581 5598 5595 5596 5598 5595 5580 5531 5565 5569 5575 5573 5570 5566 5562 5556 5550 5543 5535
5629 5623 5623 5620 5629 5627 5631 5635 5638 5641 5653 5654 5644 5638 5638 5628 5625 5621 5626 5630 5628 5628 5623 5612 5601 5599 5597 5595 5595 5593 5591 5591 5581 5576 5559 5577 5569 5567 5563 5558 5552 5548 5543 5535 5528
5614 5612 5612 5611 5615 5622 5618 5629 5630 5637 5642 5638 5632 5631 5630 5620 5619 5611 5616 5617 5618 5616 5612 5598 5583 5592 5589 5592 5590 5584 5584 5583 5583 5586 5573 5566 5562 5563 5556 5547 5543 5538 5532 5527 5521
5599 5603 5603 5604 5608 5612 5611 5614 5623 5627 5636 5637 5627 5620 5620 5618 5618 5616 5613 5615 5615 5604 5593 5588 5570 5564 5578 5577 5577 5566 5582 5581 5579 5571 5567 5548 5551 5550 5543 5536 5534 5529 5521 5516 5511